User: anonymous   Login
Location: Leeds
(37.2390°N, 113.3580°W)
Time: 19:16:30
(UTC-06:00)
Language:

SL-08 RB Rocket - Orbit

View from above orbital plane
View from above orbital plane
View from above satellite
View from above satellite

Ground track
Ground track

The orbit data is extracted from the following two-line orbital elements,

1 26387U 00033D   17149.63764591 +.00000149 +00000-0 +34160-4 0  9997
2 26387 097.9718 214.3980 0027327 038.6652 122.9774 14.68275503162841
Epoch (UTC): 29 May 2017 15:18:12
Eccentricity: 0.0027327
inclination: 97.9718°
perigee height: 647 km
apogee height: 686 km
right ascension of ascending node: 214.3980°
argument of perigee: 38.6652°
revolutions per day: 14.68275503
mean anomaly at epoch: 122.9774°
orbit number at epoch: 16284

The dashed part of the orbit path shows where the satellite is in the earth's shadow,  

DLR